Time,TemperatureF,DewpointF,PressureIn,WindDirection,WindDirectionDegrees,WindSpeedMPH,WindSpeedGustMPH,Humidity,HourlyPrecipIn,Conditions,Clouds,dailyrainin,SoftwareType,DateUTC
2013-01-13 00:02:00,70.3,65.7,30.08,ESE,109,2.0,7.0,85,0.00,,,0.00,meteohub,2013-01-13 05:02:00,
2013-01-13 00:08:00,70.3,65.7,30.08,SE,138,4.0,4.0,85,0.00,,,0.00,meteohub,2013-01-13 05:08:00,
2013-01-13 00:14:00,70.3,65.3,30.08,SE,130,2.0,7.0,84,0.00,,,0.00,meteohub,2013-01-13 05:14:00,
2013-01-13 00:17:00,70.3,65.3,30.08,SE,136,2.0,7.0,84,0.00,,,0.00,meteohub,2013-01-13 05:17:00,
2013-01-13 00:23:00,70.3,65.3,30.08,ESE,117,0.0,5.0,84,0.00,,,0.00,meteohub,2013-01-13 05:23:00,
2013-01-13 00:29:00,70.3,65.3,30.07,ESE,123,3.0,7.0,84,0.00,,,0.00,meteohub,2013-01-13 05:29:00,
2013-01-13 00:35:00,70.5,65.5,30.07,ESE,121,0.0,7.0,84,0.00,,,0.00,meteohub,2013-01-13 05:35:00,
2013-01-13 00:41:00,70.5,65.5,30.08,SSE,150,1.0,6.0,84,0.00,,,0.00,meteohub,2013-01-13 05:41:00,
2013-01-13 00:47:00,70.5,65.5,30.08,ESE,113,4.0,6.0,84,0.00,,,0.00,meteohub,2013-01-13 05:47:00,
2013-01-13 00:52:00,70.5,65.5,30.08,SE,140,3.0,8.0,84,0.00,,,0.00,meteohub,2013-01-13 05:52:00,
2013-01-13 00:57:00,70.5,65.5,30.08,SE,126,3.0,8.0,84,0.00,,,0.00,meteohub,2013-01-13 05:57:00,
2013-01-13 01:02:00,70.5,65.5,30.07,SSE,159,2.0,8.0,84,0.00,,,0.00,meteohub,2013-01-13 06:02:00,
2013-01-13 01:07:00,70.5,65.5,30.08,SE,141,2.0,8.0,84,0.00,,,0.00,meteohub,2013-01-13 06:07:00,
2013-01-13 01:12:00,70.3,65.3,30.07,ESE,122,1.0,8.0,84,0.00,,,0.00,meteohub,2013-01-13 06:12:00,
2013-01-13 01:17:00,70.3,65.3,30.07,SW,236,5.0,8.0,84,0.00,,,0.00,meteohub,2013-01-13 06:17:00,
2013-01-13 01:22:00,70.2,65.5,30.08,ESE,117,1.0,8.0,85,0.00,,,0.00,meteohub,2013-01-13 06:22:00,
2013-01-13 01:29:00,70.2,65.5,30.08,SE,128,0.0,8.0,85,0.00,,,0.00,meteohub,2013-01-13 06:29:00,
2013-01-13 01:35:00,70.0,65.3,30.08,SSE,149,2.0,8.0,85,0.00,,,0.00,meteohub,2013-01-13 06:35:00,
2013-01-13 01:41:00,69.8,65.1,30.07,South,171,0.0,8.0,85,0.00,,,0.00,meteohub,2013-01-13 06:41:00,
2013-01-13 01:47:00,69.8,65.5,30.07,ESE,121,0.0,9.0,86,0.00,,,0.00,meteohub,2013-01-13 06:47:00,
2013-01-13 01:52:00,69.8,65.5,30.07,SE,138,0.0,9.0,86,0.00,,,0.00,meteohub,2013-01-13 06:52:00,
2013-01-13 01:57:00,69.8,65.1,30.07,SE,130,0.0,6.0,85,0.00,,,0.00,meteohub,2013-01-13 06:57:00,
2013-01-13 02:02:00,69.8,65.5,30.07,South,183,2.0,7.0,86,0.00,,,0.00,meteohub,2013-01-13 07:02:00,
2013-01-13 02:07:00,69.6,65.3,30.07,SE,138,2.0,7.0,86,0.00,,,0.00,meteohub,2013-01-13 07:07:00,
2013-01-13 02:12:00,69.6,65.3,30.07,ESE,107,3.0,7.0,86,0.00,,,0.00,meteohub,2013-01-13 07:12:00,
2013-01-13 02:17:00,69.6,65.3,30.08,SSE,154,0.0,7.0,86,0.00,,,0.00,meteohub,2013-01-13 07:17:00,
2013-01-13 02:22:00,69.6,65.3,30.08,ESE,107,0.0,7.0,86,0.00,,,0.00,meteohub,2013-01-13 07:22:00,
2013-01-13 02:27:00,69.6,65.3,30.08,ESE,107,2.0,7.0,86,0.00,,,0.00,meteohub,2013-01-13 07:27:00,
2013-01-13 02:32:00,69.6,65.3,30.07,SSW,200,3.0,6.0,86,0.00,,,0.00,meteohub,2013-01-13 07:32:00,
2013-01-13 02:37:00,69.6,65.3,30.07,SE,132,7.0,7.0,86,0.00,,,0.00,meteohub,2013-01-13 07:37:00,
2013-01-13 02:42:00,69.6,65.3,30.07,SSE,161,2.0,7.0,86,0.00,,,0.00,meteohub,2013-01-13 07:42:00,
2013-01-13 02:47:00,69.6,65.3,30.07,ESE,119,2.0,7.0,86,0.00,,,0.00,meteohub,2013-01-13 07:47:00,
2013-01-13 02:52:00,69.4,65.1,30.07,SE,139,1.0,7.0,86,0.00,,,0.00,meteohub,2013-01-13 07:52:00,
2013-01-13 02:57:00,69.4,65.5,30.07,SSE,161,0.0,9.0,87,0.00,,,0.00,meteohub,2013-01-13 07:57:00,
2013-01-13 03:02:00,69.4,65.5,30.07,SSE,156,1.0,9.0,87,0.00,,,0.00,meteohub,2013-01-13 08:02:00,
2013-01-13 03:07:00,69.4,65.5,30.07,SE,132,2.0,7.0,87,0.00,,,0.00,meteohub,2013-01-13 08:07:00,
2013-01-13 03:12:00,69.3,65.3,30.07,SE,136,2.0,7.0,87,0.00,,,0.00,meteohub,2013-01-13 08:12:00,
2013-01-13 03:17:00,69.3,64.9,30.07,SE,143,1.0,7.0,86,0.00,,,0.00,meteohub,2013-01-13 08:17:00,
2013-01-13 03:22:00,69.3,65.3,30.07,SSE,154,1.0,7.0,87,0.00,,,0.00,meteohub,2013-01-13 08:22:00,
2013-01-13 03:27:00,69.3,65.3,30.06,ESE,111,4.0,5.0,87,0.00,,,0.00,meteohub,2013-01-13 08:27:00,
2013-01-13 03:32:00,69.1,65.1,30.06,SE,136,4.0,7.0,87,0.00,,,0.00,meteohub,2013-01-13 08:32:00,
2013-01-13 03:37:00,69.1,65.1,30.06,SE,136,5.0,8.0,87,0.00,,,0.00,meteohub,2013-01-13 08:37:00,
2013-01-13 03:42:00,69.1,65.1,30.05,SE,136,4.0,8.0,87,0.00,,,0.00,meteohub,2013-01-13 08:42:00,
2013-01-13 03:47:00,68.9,65.1,30.05,ESE,105,1.0,8.0,88,0.00,,,0.00,meteohub,2013-01-13 08:47:00,
2013-01-13 03:52:00,68.7,64.9,30.05,ESE,120,4.0,7.0,88,0.00,,,0.00,meteohub,2013-01-13 08:52:00,
2013-01-13 03:57:00,68.9,65.1,30.05,SSE,147,4.0,8.0,88,0.00,,,0.00,meteohub,2013-01-13 08:57:00,
2013-01-13 04:02:00,68.9,65.1,30.05,SE,135,3.0,8.0,88,0.00,,,0.00,meteohub,2013-01-13 09:02:00,
2013-01-13 04:07:00,69.1,65.1,30.05,WSW,250,1.0,8.0,87,0.00,,,0.00,meteohub,2013-01-13 09:07:00,
2013-01-13 04:12:00,69.1,65.1,30.05,SSE,155,1.0,7.0,87,0.00,,,0.00,meteohub,2013-01-13 09:12:00,
2013-01-13 04:17:00,69.1,65.1,30.05,SSE,161,0.0,9.0,87,0.00,,,0.00,meteohub,2013-01-13 09:17:00,
2013-01-13 04:22:00,69.1,65.1,30.05,ESE,113,2.0,9.0,87,0.00,,,0.00,meteohub,2013-01-13 09:22:00,
2013-01-13 04:27:00,68.9,64.9,30.05,South,170,1.0,9.0,87,0.00,,,0.00,meteohub,2013-01-13 09:27:00,
2013-01-13 04:32:00,68.7,64.8,30.05,SSE,149,2.0,7.0,87,0.00,,,0.00,meteohub,2013-01-13 09:32:00,
2013-01-13 04:37:00,68.7,64.9,30.05,SE,141,4.0,10.0,88,0.00,,,0.00,meteohub,2013-01-13 09:37:00,
2013-01-13 04:42:00,68.5,64.8,30.05,South,187,4.0,10.0,88,0.00,,,0.00,meteohub,2013-01-13 09:42:00,
2013-01-13 04:47:00,68.4,64.6,30.05,SE,140,3.0,10.0,88,0.00,,,0.00,meteohub,2013-01-13 09:47:00,
2013-01-13 04:52:00,68.2,64.8,30.05,SE,141,3.0,6.0,89,0.00,,,0.00,meteohub,2013-01-13 09:52:00,
2013-01-13 04:57:00,68.0,64.6,30.05,SE,130,7.0,8.0,89,0.00,,,0.00,meteohub,2013-01-13 09:57:00,
2013-01-13 05:02:00,67.8,64.4,30.05,SSE,155,2.0,8.0,89,0.00,,,0.00,meteohub,2013-01-13 10:02:00,
2013-01-13 05:07:00,67.6,64.2,30.05,SE,129,1.0,8.0,89,0.00,,,0.00,meteohub,2013-01-13 10:07:00,
2013-01-13 05:12:00,67.6,64.6,30.05,SSE,149,2.0,7.0,90,0.00,,,0.00,meteohub,2013-01-13 10:12:00,
2013-01-13 05:17:00,67.5,64.4,30.05,SE,141,2.0,7.0,90,0.00,,,0.00,meteohub,2013-01-13 10:17:00,
2013-01-13 05:22:00,67.3,64.2,30.04,SE,132,1.0,7.0,90,0.00,,,0.00,meteohub,2013-01-13 10:22:00,
2013-01-13 05:27:00,67.3,64.6,30.04,East,98,3.0,7.0,91,0.00,,,0.00,meteohub,2013-01-13 10:27:00,
2013-01-13 05:32:00,67.1,64.4,30.04,SE,146,1.0,7.0,91,0.00,,,0.00,meteohub,2013-01-13 10:32:00,
2013-01-13 05:37:00,67.1,64.4,30.04,SE,145,4.0,7.0,91,0.00,,,0.00,meteohub,2013-01-13 10:37:00,
2013-01-13 05:42:00,67.1,64.8,30.04,ESE,121,2.0,8.0,92,0.00,,,0.00,meteohub,2013-01-13 10:42:00,
2013-01-13 05:47:00,67.1,64.8,30.04,SSE,165,3.0,8.0,92,0.00,,,0.00,meteohub,2013-01-13 10:47:00,
2013-01-13 05:52:00,67.1,64.8,30.04,SSE,157,4.0,8.0,92,0.00,,,0.00,meteohub,2013-01-13 10:52:00,
2013-01-13 05:58:00,67.1,64.8,30.05,SE,126,0.0,7.0,92,0.00,,,0.00,meteohub,2013-01-13 10:58:00,
2013-01-13 06:04:00,66.9,64.6,30.04,SSE,156,2.0,7.0,92,0.00,,,0.00,meteohub,2013-01-13 11:04:00,
2013-01-13 06:10:00,66.9,64.6,30.04,SE,129,3.0,7.0,92,0.00,,,0.00,meteohub,2013-01-13 11:10:00,
2013-01-13 06:16:00,66.9,64.6,30.05,SSE,161,1.0,7.0,92,0.00,,,0.00,meteohub,2013-01-13 11:16:00,
2013-01-13 06:22:00,66.9,64.6,30.05,SSE,166,4.0,8.0,92,0.00,,,0.00,meteohub,2013-01-13 11:22:00,
2013-01-13 06:27:00,66.9,64.6,30.05,SW,223,3.0,8.0,92,0.00,,,0.00,meteohub,2013-01-13 11:27:00,
2013-01-13 06:32:00,66.9,64.6,30.05,ESE,109,2.0,7.0,92,0.00,,,0.00,meteohub,2013-01-13 11:32:00,
2013-01-13 06:37:00,66.9,64.6,30.05,South,173,4.0,6.0,92,0.00,,,0.00,meteohub,2013-01-13 11:37:00,
2013-01-13 06:42:00,66.7,64.4,30.05,SSE,158,1.0,7.0,92,0.00,,,0.00,meteohub,2013-01-13 11:42:00,
2013-01-13 06:47:00,66.7,64.4,30.05,SSE,149,2.0,7.0,92,0.00,,,0.00,meteohub,2013-01-13 11:47:00,
2013-01-13 06:52:00,66.7,64.6,30.05,SE,133,2.0,7.0,93,0.00,,,0.00,meteohub,2013-01-13 11:52:00,
2013-01-13 06:57:00,66.6,64.4,30.05,SE,144,0.0,4.0,93,0.00,,,0.00,meteohub,2013-01-13 11:57:00,
2013-01-13 07:02:00,66.6,64.4,30.05,ESE,121,1.0,4.0,93,0.00,,,0.00,meteohub,2013-01-13 12:02:00,
2013-01-13 07:07:00,66.4,64.2,30.05,ESE,116,1.0,4.0,93,0.00,,,0.00,meteohub,2013-01-13 12:07:00,
2013-01-13 07:12:00,66.4,64.2,30.05,East,91,0.0,5.0,93,0.00,,,0.00,meteohub,2013-01-13 12:12:00,
2013-01-13 07:17:00,66.4,64.2,30.05,SE,132,2.0,8.0,93,0.00,,,0.00,meteohub,2013-01-13 12:17:00,
2013-01-13 07:22:00,66.4,64.2,30.05,SSE,160,4.0,8.0,93,0.00,,,0.00,meteohub,2013-01-13 12:22:00,
2013-01-13 07:27:00,66.4,64.2,30.05,ESE,122,2.0,10.0,93,0.00,,,0.00,meteohub,2013-01-13 12:27:00,
2013-01-13 07:32:00,66.4,64.2,30.05,South,184,1.0,10.0,93,0.00,,,0.00,meteohub,2013-01-13 12:32:00,
2013-01-13 07:37:00,66.4,64.2,30.05,SE,138,1.0,10.0,93,0.00,,,0.00,meteohub,2013-01-13 12:37:00,
2013-01-13 07:42:00,66.4,64.2,30.05,East,100,1.0,9.0,93,0.00,,,0.00,meteohub,2013-01-13 12:42:00,
2013-01-13 07:47:00,66.6,64.4,30.06,SE,141,0.0,9.0,93,0.00,,,0.00,meteohub,2013-01-13 12:47:00,
2013-01-13 07:52:00,66.6,64.4,30.06,SSE,149,0.0,9.0,93,0.00,,,0.00,meteohub,2013-01-13 12:52:00,
2013-01-13 07:57:00,66.7,64.6,30.06,SE,126,0.0,8.0,93,0.00,,,0.00,meteohub,2013-01-13 12:57:00,
2013-01-13 08:02:00,66.7,64.6,30.06,SSE,163,0.0,9.0,93,0.00,,,0.00,meteohub,2013-01-13 13:02:00,
2013-01-13 08:07:00,67.1,64.9,30.07,SE,141,3.0,9.0,93,0.00,,,0.00,meteohub,2013-01-13 13:07:00,
2013-01-13 08:12:00,67.5,65.1,30.07,SSE,161,3.0,9.0,92,0.00,,,0.00,meteohub,2013-01-13 13:12:00,
2013-01-13 08:17:00,67.8,65.1,30.08,SSE,160,0.0,8.0,91,0.00,,,0.00,meteohub,2013-01-13 13:17:00,
2013-01-13 08:22:00,68.4,65.3,30.09,SE,139,0.0,8.0,90,0.00,,,0.00,meteohub,2013-01-13 13:22:00,
2013-01-13 08:27:00,68.5,65.5,30.09,ESE,120,0.0,6.0,90,0.00,,,0.00,meteohub,2013-01-13 13:27:00,
2013-01-13 08:32:00,68.9,65.5,30.10,ESE,120,0.0,5.0,89,0.00,,,0.00,meteohub,2013-01-13 13:32:00,
2013-01-13 08:37:00,69.4,66.0,30.10,SE,140,0.0,5.0,89,0.00,,,0.00,meteohub,2013-01-13 13:37:00,
2013-01-13 08:42:00,69.8,66.0,30.11,SE,140,0.0,4.0,88,0.00,,,0.00,meteohub,2013-01-13 13:42:00,
2013-01-13 08:47:00,70.3,66.2,30.11,South,187,1.0,4.0,87,0.00,,,0.00,meteohub,2013-01-13 13:47:00,
2013-01-13 08:52:00,70.7,66.4,30.12,SE,138,0.0,4.0,86,0.00,,,0.00,meteohub,2013-01-13 13:52:00,
2013-01-13 08:57:00,71.1,66.4,30.12,SE,136,0.0,4.0,85,0.00,,,0.00,meteohub,2013-01-13 13:57:00,
2013-01-13 09:02:00,71.2,66.6,30.12,ESE,120,2.0,4.0,85,0.00,,,0.00,meteohub,2013-01-13 14:02:00,
2013-01-13 09:07:00,71.4,66.4,30.12,SSE,166,1.0,4.0,84,0.00,,,0.00,meteohub,2013-01-13 14:07:00,
2013-01-13 09:12:00,71.4,66.4,30.13,SE,128,2.0,4.0,84,0.00,,,0.00,meteohub,2013-01-13 14:12:00,
2013-01-13 09:17:00,71.4,66.7,30.13,ENE,66,2.0,7.0,85,0.00,,,0.00,meteohub,2013-01-13 14:17:00,
2013-01-13 09:22:00,71.4,66.4,30.13,East,84,3.0,7.0,84,0.00,,,0.00,meteohub,2013-01-13 14:22:00,
2013-01-13 09:27:00,71.8,67.1,30.14,SE,141,4.0,7.0,85,0.00,,,0.00,meteohub,2013-01-13 14:27:00,
2013-01-13 09:32:00,72.1,66.7,30.14,ENE,60,2.0,7.0,83,0.00,,,0.00,meteohub,2013-01-13 14:32:00,
2013-01-13 09:37:00,72.1,66.7,30.14,ENE,62,4.0,5.0,83,0.00,,,0.00,meteohub,2013-01-13 14:37:00,
2013-01-13 09:42:00,71.8,66.7,30.14,East,81,1.0,7.0,84,0.00,,,0.00,meteohub,2013-01-13 14:42:00,
2013-01-13 09:47:00,72.0,66.9,30.14,ENE,73,2.0,7.0,84,0.00,,,0.00,meteohub,2013-01-13 14:47:00,
2013-01-13 09:52:00,72.1,67.1,30.15,ESE,116,0.0,7.0,84,0.00,,,0.00,meteohub,2013-01-13 14:52:00,
2013-01-13 09:57:00,72.7,67.3,30.15,East,80,1.0,5.0,83,0.00,,,0.00,meteohub,2013-01-13 14:57:00,
2013-01-13 10:02:00,73.2,67.1,30.15,SE,130,5.0,7.0,81,0.00,,,0.00,meteohub,2013-01-13 15:02:00,
2013-01-13 10:07:00,73.4,67.3,30.15,ESE,119,2.0,7.0,81,0.00,,,0.00,meteohub,2013-01-13 15:07:00,
2013-01-13 10:12:00,73.6,67.1,30.15,SSE,149,3.0,6.0,80,0.00,,,0.00,meteohub,2013-01-13 15:12:00,
2013-01-13 10:17:00,73.8,67.3,30.15,East,80,2.0,6.0,80,0.00,,,0.00,meteohub,2013-01-13 15:17:00,
2013-01-13 10:22:00,73.9,67.5,30.15,SSE,148,0.0,6.0,80,0.00,,,0.00,meteohub,2013-01-13 15:22:00,
2013-01-13 10:27:00,74.5,67.5,30.15,SSE,163,1.0,5.0,79,0.00,,,0.00,meteohub,2013-01-13 15:27:00,
2013-01-13 10:32:00,74.8,67.5,30.15,ESE,109,4.0,5.0,78,0.00,,,0.00,meteohub,2013-01-13 15:32:00,
2013-01-13 10:37:00,74.8,67.5,30.15,East,86,1.0,5.0,78,0.00,,,0.00,meteohub,2013-01-13 15:37:00,
2013-01-13 10:42:00,74.8,67.5,30.15,SE,141,2.0,7.0,78,0.00,,,0.00,meteohub,2013-01-13 15:42:00,
2013-01-13 10:47:00,74.5,67.5,30.14,SE,129,1.0,8.0,79,0.00,,,0.00,meteohub,2013-01-13 15:47:00,
2013-01-13 10:52:00,74.1,67.6,30.14,SE,132,1.0,8.0,80,0.00,,,0.00,meteohub,2013-01-13 15:52:00,
2013-01-13 10:57:00,74.5,67.5,30.14,ENE,63,2.0,8.0,79,0.00,,,0.00,meteohub,2013-01-13 15:57:00,
2013-01-13 11:02:00,74.8,67.8,30.14,SE,132,4.0,5.0,79,0.00,,,0.00,meteohub,2013-01-13 16:02:00,
2013-01-13 11:07:00,75.7,68.4,30.14,ESE,123,1.0,5.0,78,0.00,,,0.00,meteohub,2013-01-13 16:07:00,
2013-01-13 11:12:00,75.7,68.0,30.13,East,93,1.0,7.0,77,0.00,,,0.00,meteohub,2013-01-13 16:12:00,
2013-01-13 11:17:00,75.6,68.2,30.13,East,80,2.0,7.0,78,0.00,,,0.00,meteohub,2013-01-13 16:17:00,
2013-01-13 11:22:00,75.6,67.8,30.12,ENE,78,2.0,7.0,77,0.00,,,0.00,meteohub,2013-01-13 16:22:00,
2013-01-13 11:27:00,75.6,68.2,30.12,ENE,74,1.0,7.0,78,0.00,,,0.00,meteohub,2013-01-13 16:27:00,
2013-01-13 11:32:00,75.4,68.0,30.12,SE,136,4.0,8.0,78,0.00,,,0.00,meteohub,2013-01-13 16:32:00,
2013-01-13 11:37:00,75.4,68.4,30.12,ENE,74,1.0,8.0,79,0.00,,,0.00,meteohub,2013-01-13 16:37:00,
2013-01-13 11:42:00,75.6,68.5,30.11,East,86,1.0,7.0,79,0.00,,,0.00,meteohub,2013-01-13 16:42:00,
2013-01-13 11:47:00,75.7,68.4,30.11,ENE,67,4.0,8.0,78,0.00,,,0.00,meteohub,2013-01-13 16:47:00,
2013-01-13 11:52:00,75.7,68.7,30.10,ENE,78,5.0,8.0,79,0.00,,,0.00,meteohub,2013-01-13 16:52:00,
2013-01-13 11:57:00,75.9,68.5,30.10,East,84,6.0,7.0,78,0.00,,,0.00,meteohub,2013-01-13 16:57:00,
2013-01-13 12:02:00,76.3,68.5,30.10,ESE,107,2.0,8.0,77,0.00,,,0.00,meteohub,2013-01-13 17:02:00,
2013-01-13 12:07:00,76.5,68.7,30.10,ESE,107,1.0,8.0,77,0.00,,,0.00,meteohub,2013-01-13 17:07:00,
2013-01-13 12:12:00,76.5,68.7,30.10,ENE,65,3.0,8.0,77,0.00,,,0.00,meteohub,2013-01-13 17:12:00,
2013-01-13 12:17:00,76.6,68.5,30.10,ENE,63,5.0,8.0,76,0.00,,,0.00,meteohub,2013-01-13 17:17:00,
2013-01-13 12:22:00,76.6,68.5,30.09,SE,128,2.0,8.0,76,0.00,,,0.00,meteohub,2013-01-13 17:22:00,
2013-01-13 12:27:00,76.5,68.4,30.09,ENE,77,2.0,7.0,76,0.00,,,0.00,meteohub,2013-01-13 17:27:00,
2013-01-13 12:32:00,76.1,68.0,30.09,ENE,69,5.0,7.0,76,0.00,,,0.00,meteohub,2013-01-13 17:32:00,
2013-01-13 12:37:00,76.3,68.5,30.09,ENE,57,4.0,8.0,77,0.00,,,0.00,meteohub,2013-01-13 17:37:00,
2013-01-13 12:42:00,76.5,68.7,30.08,SE,142,3.0,8.0,77,0.00,,,0.00,meteohub,2013-01-13 17:42:00,
2013-01-13 12:47:00,76.6,68.5,30.08,ENE,74,4.0,8.0,76,0.00,,,0.00,meteohub,2013-01-13 17:47:00,
2013-01-13 12:52:00,76.6,68.5,30.08,ENE,67,8.0,8.0,76,0.00,,,0.00,meteohub,2013-01-13 17:52:00,
2013-01-13 12:57:00,76.5,68.4,30.08,SE,136,2.0,8.0,76,0.00,,,0.00,meteohub,2013-01-13 17:57:00,
2013-01-13 13:03:00,76.6,68.2,30.07,East,80,3.0,8.0,75,0.00,,,0.00,meteohub,2013-01-13 18:03:00,
2013-01-13 13:09:00,77.0,68.9,30.06,SE,137,3.0,8.0,76,0.00,,,0.00,meteohub,2013-01-13 18:09:00,
2013-01-13 13:15:00,77.2,68.7,30.06,ENE,63,3.0,7.0,75,0.00,,,0.00,meteohub,2013-01-13 18:15:00,
2013-01-13 13:21:00,77.4,68.4,30.06,ENE,78,2.0,7.0,74,0.00,,,0.00,meteohub,2013-01-13 18:21:00,
2013-01-13 13:27:00,77.5,68.2,30.06,ENE,77,1.0,7.0,73,0.00,,,0.00,meteohub,2013-01-13 18:27:00,
2013-01-13 13:32:00,78.1,68.4,30.06,SE,143,2.0,7.0,72,0.00,,,0.00,meteohub,2013-01-13 18:32:00,
2013-01-13 13:37:00,78.3,68.0,30.06,SE,143,0.0,7.0,71,0.00,,,0.00,meteohub,2013-01-13 18:37:00,
2013-01-13 13:42:00,78.3,68.5,30.06,ESE,112,0.0,7.0,72,0.00,,,0.00,meteohub,2013-01-13 18:42:00,
2013-01-13 13:47:00,78.1,67.8,30.05,SSE,150,3.0,7.0,71,0.00,,,0.00,meteohub,2013-01-13 18:47:00,
2013-01-13 13:52:00,78.1,67.8,30.05,SE,130,2.0,7.0,71,0.00,,,0.00,meteohub,2013-01-13 18:52:00,
2013-01-13 13:57:00,77.9,67.8,30.05,SE,130,0.0,7.0,71,0.00,,,0.00,meteohub,2013-01-13 18:57:00,
2013-01-13 14:02:00,77.7,67.6,30.06,SE,135,2.0,6.0,71,0.00,,,0.00,meteohub,2013-01-13 19:02:00,
2013-01-13 14:07:00,77.5,67.5,30.06,ENE,61,1.0,6.0,71,0.00,,,0.00,meteohub,2013-01-13 19:07:00,
2013-01-13 14:12:00,77.5,67.5,30.06,ENE,71,1.0,6.0,71,0.00,,,0.00,meteohub,2013-01-13 19:12:00,
2013-01-13 14:17:00,77.7,67.1,30.06,SE,131,1.0,6.0,70,0.00,,,0.00,meteohub,2013-01-13 19:17:00,
2013-01-13 14:22:00,78.4,67.5,30.05,SE,142,0.0,5.0,69,0.00,,,0.00,meteohub,2013-01-13 19:22:00,
2013-01-13 14:27:00,79.2,67.3,30.05,SE,136,2.0,5.0,67,0.00,,,0.00,meteohub,2013-01-13 19:27:00,
2013-01-13 14:32:00,79.3,67.5,30.05,ESE,120,1.0,4.0,67,0.00,,,0.00,meteohub,2013-01-13 19:32:00,
2013-01-13 14:37:00,79.5,67.1,30.05,SE,135,2.0,5.0,66,0.00,,,0.00,meteohub,2013-01-13 19:37:00,
2013-01-13 14:42:00,79.2,66.7,30.05,ESE,119,2.0,5.0,66,0.00,,,0.00,meteohub,2013-01-13 19:42:00,
2013-01-13 14:47:00,79.0,67.1,30.05,ESE,113,2.0,6.0,67,0.00,,,0.00,meteohub,2013-01-13 19:47:00,
2013-01-13 14:52:00,79.2,67.3,30.05,SE,137,0.0,6.0,67,0.00,,,0.00,meteohub,2013-01-13 19:52:00,
2013-01-13 14:57:00,79.3,66.9,30.06,East,90,1.0,5.0,66,0.00,,,0.00,meteohub,2013-01-13 19:57:00,
2013-01-13 15:02:00,79.3,67.5,30.06,East,89,1.0,4.0,67,0.00,,,0.00,meteohub,2013-01-13 20:02:00,
2013-01-13 15:07:00,79.5,66.2,30.06,East,84,0.0,4.0,64,0.00,,,0.00,meteohub,2013-01-13 20:07:00,
2013-01-13 15:12:00,79.3,66.0,30.06,ENE,78,1.0,4.0,64,0.00,,,0.00,meteohub,2013-01-13 20:12:00,
2013-01-13 15:17:00,79.0,66.6,30.06,ENE,65,2.0,3.0,66,0.00,,,0.00,meteohub,2013-01-13 20:17:00,
2013-01-13 15:22:00,78.8,66.6,30.05,NE,44,0.0,3.0,66,0.00,,,0.00,meteohub,2013-01-13 20:22:00,
2013-01-13 15:27:00,79.0,66.6,30.06,East,96,1.0,3.0,66,0.00,,,0.00,meteohub,2013-01-13 20:27:00,
2013-01-13 15:32:00,79.0,66.2,30.06,ENE,57,0.0,3.0,65,0.00,,,0.00,meteohub,2013-01-13 20:32:00,
2013-01-13 15:37:00,79.0,66.6,30.06,East,79,1.0,4.0,66,0.00,,,0.00,meteohub,2013-01-13 20:37:00,
2013-01-13 15:42:00,78.8,66.6,30.06,ENE,61,1.0,5.0,66,0.00,,,0.00,meteohub,2013-01-13 20:42:00,
2013-01-13 15:47:00,78.6,66.7,30.06,ENE,62,0.0,5.0,67,0.00,,,0.00,meteohub,2013-01-13 20:47:00,
2013-01-13 15:52:00,78.8,66.6,30.06,ENE,70,0.0,3.0,66,0.00,,,0.00,meteohub,2013-01-13 20:52:00,
2013-01-13 15:57:00,78.6,66.7,30.06,ENE,68,1.0,3.0,67,0.00,,,0.00,meteohub,2013-01-13 20:57:00,
2013-01-13 16:02:00,78.8,66.9,30.06,East,84,0.0,3.0,67,0.00,,,0.00,meteohub,2013-01-13 21:02:00,
2013-01-13 16:07:00,79.0,67.1,30.06,East,84,1.0,3.0,67,0.00,,,0.00,meteohub,2013-01-13 21:07:00,
2013-01-13 16:12:00,79.2,66.7,30.06,East,84,0.0,3.0,66,0.00,,,0.00,meteohub,2013-01-13 21:12:00,
2013-01-13 16:17:00,79.3,66.6,30.06,ESE,113,0.0,3.0,65,0.00,,,0.00,meteohub,2013-01-13 21:17:00,
2013-01-13 16:22:00,79.3,67.5,30.06,SSE,153,2.0,2.0,67,0.00,,,0.00,meteohub,2013-01-13 21:22:00,
2013-01-13 16:27:00,79.0,67.1,30.06,SE,136,2.0,4.0,67,0.00,,,0.00,meteohub,2013-01-13 21:27:00,
2013-01-13 16:32:00,78.6,67.1,30.06,SE,145,0.0,4.0,68,0.00,,,0.00,meteohub,2013-01-13 21:32:00,
2013-01-13 16:37:00,78.4,66.9,30.06,SE,145,0.0,4.0,68,0.00,,,0.00,meteohub,2013-01-13 21:37:00,
2013-01-13 16:42:00,78.3,66.7,30.07,SE,145,0.0,3.0,68,0.00,,,0.00,meteohub,2013-01-13 21:42:00,
2013-01-13 16:47:00,78.1,67.5,30.07,SE,145,1.0,2.0,70,0.00,,,0.00,meteohub,2013-01-13 21:47:00,
2013-01-13 16:52:00,77.9,67.3,30.06,SE,145,1.0,1.0,70,0.00,,,0.00,meteohub,2013-01-13 21:52:00,
2013-01-13 16:57:00,77.2,66.2,30.06,SW,219,4.0,4.0,69,0.00,,,0.00,meteohub,2013-01-13 21:57:00,
2013-01-13 17:02:00,76.8,65.5,30.06,SW,229,0.0,4.0,68,0.00,,,0.00,meteohub,2013-01-13 22:02:00,
2013-01-13 17:07:00,76.6,65.7,30.07,WSW,254,2.0,4.0,69,0.00,,,0.00,meteohub,2013-01-13 22:07:00,
2013-01-13 17:12:00,76.3,65.3,30.07,SW,234,0.0,4.0,69,0.00,,,0.00,meteohub,2013-01-13 22:12:00,
2013-01-13 17:17:00,76.1,65.7,30.07,SW,234,1.0,4.0,70,0.00,,,0.00,meteohub,2013-01-13 22:17:00,
2013-01-13 17:22:00,75.9,65.5,30.07,SW,234,2.0,4.0,70,0.00,,,0.00,meteohub,2013-01-13 22:22:00,
2013-01-13 17:28:00,75.4,65.3,30.07,SW,234,1.0,2.0,71,0.00,,,0.00,meteohub,2013-01-13 22:28:00,
2013-01-13 17:34:00,74.8,65.1,30.07,WSW,240,1.0,3.0,72,0.00,,,0.00,meteohub,2013-01-13 22:34:00,
2013-01-13 17:40:00,74.7,65.1,30.07,SW,235,2.0,3.0,72,0.00,,,0.00,meteohub,2013-01-13 22:40:00,
2013-01-13 17:47:00,74.5,65.3,30.06,SW,215,0.0,4.0,73,0.00,,,0.00,meteohub,2013-01-13 22:47:00,
2013-01-13 17:52:00,74.1,64.6,30.07,WSW,253,1.0,6.0,72,0.00,,,0.00,meteohub,2013-01-13 22:52:00,
2013-01-13 17:57:00,73.9,64.4,30.07,WSW,246,1.0,6.0,72,0.00,,,0.00,meteohub,2013-01-13 22:57:00,
2013-01-13 18:02:00,73.6,64.4,30.07,WSW,238,3.0,6.0,73,0.00,,,0.00,meteohub,2013-01-13 23:02:00,
2013-01-13 18:07:00,73.6,64.4,30.07,WSW,237,1.0,6.0,73,0.00,,,0.00,meteohub,2013-01-13 23:07:00,
2013-01-13 18:12:00,73.2,64.4,30.06,WSW,237,2.0,5.0,74,0.00,,,0.00,meteohub,2013-01-13 23:12:00,
2013-01-13 18:17:00,73.0,64.6,30.07,SW,236,0.0,4.0,75,0.00,,,0.00,meteohub,2013-01-13 23:17:00,
2013-01-13 18:22:00,72.9,64.4,30.07,SW,236,0.0,4.0,75,0.00,,,0.00,meteohub,2013-01-13 23:22:00,
2013-01-13 18:27:00,72.7,64.8,30.06,SW,236,1.0,3.0,76,0.00,,,0.00,meteohub,2013-01-13 23:27:00,
2013-01-13 18:32:00,72.3,64.4,30.06,SW,236,0.0,2.0,76,0.00,,,0.00,meteohub,2013-01-13 23:32:00,
2013-01-13 18:37:00,72.1,64.6,30.06,SW,236,0.0,2.0,77,0.00,,,0.00,meteohub,2013-01-13 23:37:00,
2013-01-13 18:42:00,71.8,64.6,30.07,SW,236,0.0,1.0,78,0.00,,,0.00,meteohub,2013-01-13 23:42:00,
2013-01-13 18:47:00,71.2,64.4,30.07,SW,236,0.0,1.0,79,0.00,,,0.00,meteohub,2013-01-13 23:47:00,
2013-01-13 18:52:00,70.9,64.4,30.07,SW,236,0.0,2.0,80,0.00,,,0.00,meteohub,2013-01-13 23:52:00,
2013-01-13 18:57:00,70.5,64.0,30.07,SW,236,0.0,2.0,80,0.00,,,0.00,meteohub,2013-01-13 23:57:00,
2013-01-13 19:02:00,70.3,64.2,30.07,SW,236,0.0,1.0,81,0.00,,,0.00,meteohub,2013-01-14 00:02:00,
2013-01-13 19:07:00,70.2,64.0,30.06,SW,236,0.0,1.0,81,0.00,,,0.00,meteohub,2013-01-14 00:07:00,
2013-01-13 19:12:00,70.2,64.4,30.07,SW,236,0.0,1.0,82,0.00,,,0.00,meteohub,2013-01-14 00:12:00,
2013-01-13 19:17:00,69.8,64.0,30.07,SW,236,0.0,1.0,82,0.00,,,0.00,meteohub,2013-01-14 00:17:00,
2013-01-13 19:22:00,69.4,64.0,30.07,SW,236,0.0,1.0,83,0.00,,,0.00,meteohub,2013-01-14 00:22:00,
2013-01-13 19:27:00,69.4,64.0,30.07,SW,236,0.0,1.0,83,0.00,,,0.00,meteohub,2013-01-14 00:27:00,
2013-01-13 19:32:00,69.3,64.6,30.07,SW,236,0.0,1.0,85,0.00,,,0.00,meteohub,2013-01-14 00:32:00,
2013-01-13 19:37:00,69.1,64.4,30.07,SW,236,0.0,1.0,85,0.00,,,0.00,meteohub,2013-01-14 00:37:00,
2013-01-13 19:42:00,68.7,64.4,30.07,SW,236,0.0,0.0,86,0.00,,,0.00,meteohub,2013-01-14 00:42:00,
2013-01-13 19:47:00,68.4,64.0,30.07,SW,236,0.0,1.0,86,0.00,,,0.00,meteohub,2013-01-14 00:47:00,
2013-01-13 19:52:00,68.2,64.2,30.07,SW,236,0.0,1.0,87,0.00,,,0.00,meteohub,2013-01-14 00:52:00,
2013-01-13 19:57:00,68.0,64.0,30.06,SW,236,0.0,0.0,87,0.00,,,0.00,meteohub,2013-01-14 00:57:00,
2013-01-13 20:02:00,67.8,64.2,30.06,SW,236,0.0,1.0,88,0.00,,,0.00,meteohub,2013-01-14 01:02:00,
2013-01-13 20:07:00,67.5,63.9,30.06,SW,236,0.0,1.0,88,0.00,,,0.00,meteohub,2013-01-14 01:07:00,
2013-01-13 20:12:00,67.3,63.9,30.06,SW,236,1.0,1.0,89,0.00,,,0.00,meteohub,2013-01-14 01:12:00,
2013-01-13 20:17:00,66.9,63.5,30.06,SW,236,0.0,1.0,89,0.00,,,0.00,meteohub,2013-01-14 01:17:00,
2013-01-13 20:22:00,66.7,63.3,30.06,SW,236,0.0,1.0,89,0.00,,,0.00,meteohub,2013-01-14 01:22:00,
2013-01-13 20:27:00,66.7,63.3,30.06,SW,236,0.0,1.0,89,0.00,,,0.00,meteohub,2013-01-14 01:27:00,
2013-01-13 20:32:00,66.6,63.1,30.06,SW,236,0.0,0.0,89,0.00,,,0.00,meteohub,2013-01-14 01:32:00,
2013-01-13 20:37:00,66.4,63.3,30.06,SW,236,0.0,0.0,90,0.00,,,0.00,meteohub,2013-01-14 01:37:00,
2013-01-13 20:42:00,66.2,63.1,30.06,SW,236,0.0,0.0,90,0.00,,,0.00,meteohub,2013-01-14 01:42:00,
2013-01-13 20:47:00,66.0,63.3,30.06,SW,236,0.0,0.0,91,0.00,,,0.00,meteohub,2013-01-14 01:47:00,
2013-01-13 20:52:00,65.8,63.1,30.07,SW,236,0.0,0.0,91,0.00,,,0.00,meteohub,2013-01-14 01:52:00,
2013-01-13 20:57:00,65.8,63.1,30.07,SW,236,0.0,0.0,91,0.00,,,0.00,meteohub,2013-01-14 01:57:00,
2013-01-13 21:02:00,65.7,63.3,30.07,SW,236,0.0,0.0,92,0.00,,,0.00,meteohub,2013-01-14 02:02:00,
2013-01-13 21:07:00,65.7,63.3,30.07,SW,236,0.0,0.0,92,0.00,,,0.00,meteohub,2013-01-14 02:07:00,
2013-01-13 21:12:00,65.5,63.1,30.07,SW,236,0.0,1.0,92,0.00,,,0.00,meteohub,2013-01-14 02:12:00,
2013-01-13 21:17:00,65.3,63.0,30.07,SW,236,0.0,1.0,92,0.00,,,0.00,meteohub,2013-01-14 02:17:00,
2013-01-13 21:22:00,65.1,62.8,30.07,SW,236,0.0,1.0,92,0.00,,,0.00,meteohub,2013-01-14 02:22:00,
2013-01-13 21:27:00,65.1,63.0,30.07,SW,236,0.0,1.0,93,0.00,,,0.00,meteohub,2013-01-14 02:27:00,
2013-01-13 21:32:00,65.1,63.0,30.07,SW,236,0.0,0.0,93,0.00,,,0.00,meteohub,2013-01-14 02:32:00,
2013-01-13 21:37:00,65.1,63.0,30.07,SW,236,0.0,0.0,93,0.00,,,0.00,meteohub,2013-01-14 02:37:00,
2013-01-13 21:42:00,64.9,62.8,30.08,SW,236,0.0,0.0,93,0.00,,,0.00,meteohub,2013-01-14 02:42:00,
2013-01-13 21:47:00,64.9,62.8,30.08,SW,236,0.0,0.0,93,0.00,,,0.00,meteohub,2013-01-14 02:47:00,
2013-01-13 21:52:00,64.9,62.8,30.08,SW,236,0.0,0.0,93,0.00,,,0.00,meteohub,2013-01-14 02:52:00,
2013-01-13 21:57:00,64.9,63.1,30.08,SW,236,0.0,0.0,94,0.00,,,0.00,meteohub,2013-01-14 02:57:00,
2013-01-13 22:02:00,64.9,63.1,30.08,SW,236,0.0,0.0,94,0.00,,,0.00,meteohub,2013-01-14 03:02:00,
2013-01-13 22:07:00,65.1,63.3,30.09,SW,236,0.0,0.0,94,0.00,,,0.00,meteohub,2013-01-14 03:07:00,
2013-01-13 22:12:00,65.1,63.3,30.09,SW,236,0.0,1.0,94,0.00,,,0.00,meteohub,2013-01-14 03:12:00,
2013-01-13 22:17:00,65.5,64.0,30.09,SW,236,0.0,1.0,95,0.00,,,0.00,meteohub,2013-01-14 03:17:00,
2013-01-13 22:22:00,65.5,63.7,30.09,SW,236,0.0,1.0,94,0.00,,,0.00,meteohub,2013-01-14 03:22:00,
2013-01-13 22:27:00,65.5,63.7,30.10,SW,236,0.0,0.0,94,0.00,,,0.00,meteohub,2013-01-14 03:27:00,
2013-01-13 22:32:00,65.5,63.7,30.10,SW,236,0.0,0.0,94,0.00,,,0.00,meteohub,2013-01-14 03:32:00,
2013-01-13 22:37:00,65.5,64.0,30.10,SW,236,0.0,0.0,95,0.00,,,0.00,meteohub,2013-01-14 03:37:00,
2013-01-13 22:42:00,65.7,64.2,30.09,SW,236,0.0,0.0,95,0.00,,,0.00,meteohub,2013-01-14 03:42:00,
2013-01-13 22:47:00,65.7,64.2,30.10,SW,236,0.0,0.0,95,0.00,,,0.00,meteohub,2013-01-14 03:47:00,
2013-01-13 22:52:00,65.8,64.4,30.10,SW,236,0.0,0.0,95,0.00,,,0.00,meteohub,2013-01-14 03:52:00,
2013-01-13 22:57:00,65.7,64.2,30.10,SW,236,0.0,0.0,95,0.00,,,0.00,meteohub,2013-01-14 03:57:00,
2013-01-13 23:02:00,65.7,64.2,30.10,SW,236,0.0,0.0,95,0.00,,,0.00,meteohub,2013-01-14 04:02:00,
2013-01-13 23:07:00,65.7,64.2,30.10,SW,236,0.0,0.0,95,0.00,,,0.00,meteohub,2013-01-14 04:07:00,
2013-01-13 23:12:00,65.7,64.2,30.10,SW,236,0.0,0.0,95,0.00,,,0.00,meteohub,2013-01-14 04:12:00,
2013-01-13 23:17:00,65.7,64.4,30.10,SW,236,0.0,0.0,96,0.00,,,0.00,meteohub,2013-01-14 04:17:00,
2013-01-13 23:22:00,65.7,64.2,30.10,SW,236,0.0,0.0,95,0.00,,,0.00,meteohub,2013-01-14 04:22:00,
2013-01-13 23:27:00,65.7,64.4,30.10,SW,236,0.0,0.0,96,0.00,,,0.00,meteohub,2013-01-14 04:27:00,
2013-01-13 23:32:00,65.7,64.4,30.10,SW,236,0.0,0.0,96,0.00,,,0.00,meteohub,2013-01-14 04:32:00,
2013-01-13 23:37:00,65.5,64.0,30.10,SW,236,0.0,0.0,95,0.00,,,0.00,meteohub,2013-01-14 04:37:00,
2013-01-13 23:42:00,65.1,63.7,30.10,SW,236,0.0,1.0,95,0.00,,,0.00,meteohub,2013-01-14 04:42:00,
2013-01-13 23:47:00,65.1,64.0,30.11,SW,236,0.0,1.0,96,0.00,,,0.00,meteohub,2013-01-14 04:47:00,
2013-01-13 23:52:00,65.1,64.0,30.10,SW,236,0.0,1.0,96,0.00,,,0.00,meteohub,2013-01-14 04:52:00,
2013-01-13 23:57:00,64.9,63.9,30.11,SW,236,0.0,0.0,96,0.00,,,0.00,meteohub,2013-01-14 04:57:00,